Погода в Купели

Украина / Ровненская область     51°26′07″N   27°34′15″E
темп.,
°C
ветер,
м/с
пор.,
м/с
влажн.,
%
обл.,
%
осадки,
мм/ч
давл.,
гПа
погр.,
м
27 ноября, сб
сб2723:00+5юв61482100 0.0 998903
02:00+6юв61480100 0.2 9941208
05:00+6ююв51292100 1.4 991905
08:00+6ююз4991100 1.7 992707
11:00+7юз5128083 0.1 993969
14:00+6зюз61271100 0.1 9961198
17:00+4зюз61173100 0.0 999998
20:00+3зюз497928 0.0 1001619
28 ноября, вс
вс2823:00+1ююз27905 0.0 1002197
02:000ююз239370 0.0 100359
05:00+1ююв2688100 0.0 1003158
08:00+2ююв2489100 0.0 100382
11:00+4юв2484100 0.1 1003145
14:00+6вюв3779100 0.1 1001338
17:00+5вюв3891100 0.2 1000259
20:00+6ююв3985100 0.2 999289
29 ноября, пн
пн2923:00+4ююв3892100 0.0 998165
02:00+4юв3793100 0.0 996153
05:00+5юв3996100 0.0 993239
08:00+7юв41296100 0.0 990490
11:00+8ю3997100 0.4 988633
14:00+5з61189100 0.8 988649
17:00+3зюз61179100 0.0 990959
20:00+2зюз71378100 0.1 9921298
30 ноября, вт
вт3023:00+2зюз81687100 0.1 9911468
02:00+2зюз81675100 0.2 9921543
05:00+1зюз9177991 0.1 9941396
08:00+1з91884100 0.2 9951686
11:00+2з8147099 0.1 9991429
14:00+2з7126984 0.2 10001272
17:000з6117258 0.0 1001934
20:00−1з4118391 0.0 1002896
1 декабря, ср
ср123:00−1зюз41185100 0.1 1001677
02:00−1зюз41083100 0.1 1001776
05:00−1ююз3995100 0.6 1000542
08:00−1юз3895100 1.1 1000468
11:00+1з348579 0.1 1001489
14:00+2з3579100 0.1 1002897
17:000юз2598100 0.2 1003256
20:00+1юз4897100 0.4 1002632